Stanley, ID

5:28 PM MDT on August 31, 2016 (GMT -0600)
Stanley

Weather History for KSNT - October, 2012

Change the Weather History Date:

Wednesday, October 31, 2012

  Actual Average Record
Temperature  
Mean Temperature 45 °F 32 °F  
Max Temperature 64 °F 45 °F 64 °F (2012)
Min Temperature 25 °F 19 °F -6 °F (2002)
Degree Days  
Heating Degree Days 20 33  
Month to date heating degree days 839 822  
Since 1 July heating degree days 1587 1864  
Cooling Degree Days 0 0  
Month to date cooling degree days 0 0  
Year to date cooling degree days 3 3  
Moisture  
Dew Point 27 °F    
Average Humidity 60    
Maximum Humidity 100    
Minimum Humidity 20    
Precipitation  
Precipitation 0.00 in 0.08 in 0.45 in (1992)
Month to date precipitation 2.41 1.47  
Year to date precipitation 18.05 13.68  
Snow  
Snow 0.00 in - - ()
Snow Depth -    
Sea Level Pressure  
Sea Level Pressure 29.99 in    
Wind  
Wind Speed 4 mph (SSE)    
Max Wind Speed 13 mph    
Max Gust Speed 18 mph    
T = Trace of Precipitation, MM = Missing Value Source: NWS Daily Summary

Daily Weather History Graph

Daily Weather History Graph

Search for Another Location

Airport or City:

Trip Planner

Search our weather history database for the weather conditions in past years. The results will help you decide how hot, cold, wet, or windy it might be!

Date:

Astronomy

Oct. 31, 2012 Rise Set
Actual Time 8:15 AM MDT 6:30 PM MDT
Civil Twilight 7:45 AM MDT 7:00 PM MDT
Nautical Twilight 7:11 AM MDT 7:34 PM MDT
Astronomical Twilight 6:37 AM MDT 8:07 PM MDT
Moon 7:40 PM MDT 10:04 AM MDT
Length of Visible Light 11h 14m
Length of Day
10h 14m
Full, 97% of the Moon is Illuminated
Oct 31
Full
Nov 6
Last Quarter
Nov 13
New
Nov 20
First Quarter
Nov 28
Full

Hourly Weather History & Observations

Time (MDT) Temp. Windchill Dew Point Humidity Pressure Visibility Wind Dir Wind Speed Gust Speed Precip Events Conditions
12:51 AM 30.9 °F - 28.9 °F 92% 30.11 in - Calm Calm - N/A   Unknown
1:51 AM 28.9 °F - 27.0 °F 92% 30.09 in - Calm Calm - N/A   Unknown
2:51 AM 28.9 °F - 27.0 °F 92% 30.04 in - Calm Calm - N/A   Unknown
3:51 AM 27.0 °F 23.0 °F 25.0 °F 92% 30.04 in - WSW 3.5 mph - N/A   Unknown
4:51 AM 26.1 °F - 25.0 °F 96% 30.05 in - Calm Calm - N/A   Unknown
5:51 AM 27.0 °F - 25.0 °F 92% 30.06 in - Calm Calm - N/A   Unknown
6:51 AM 26.1 °F - 24.1 °F 92% 30.10 in - Calm Calm - N/A   Unknown
7:51 AM 27.0 °F - 26.1 °F 96% 30.11 in - Calm Calm - N/A   Unknown
8:51 AM 27.0 °F - 26.1 °F 96% 30.12 in - Calm Calm - N/A   Unknown
9:51 AM 28.9 °F - 28.0 °F 96% 30.11 in - Calm Calm - N/A   Unknown
10:51 AM 30.0 °F - 28.9 °F 96% 30.11 in - Calm Calm - N/A   Unknown
11:51 AM 35.1 °F - 32.0 °F 89% 30.07 in - Calm Calm - N/A   Unknown
12:51 PM 45.0 °F 43.5 °F 33.1 °F 63% 30.00 in - NNW 3.5 mph - N/A   Unknown
1:51 PM 52.0 °F - 33.1 °F 49% 29.94 in - Variable 3.5 mph - N/A   Unknown
2:51 PM 62.1 °F - 24.1 °F 23% 29.87 in - South 10.4 mph - N/A   Unknown
3:51 PM 62.1 °F - 21.9 °F 21% 29.86 in - South 10.4 mph 16.1 mph N/A   Unknown
4:51 PM 59.0 °F - 21.0 °F 23% 29.87 in - SSE 8.1 mph - N/A   Unknown
5:51 PM 55.0 °F - 26.1 °F 33% 29.88 in - South 5.8 mph - N/A   Unknown
6:51 PM 51.1 °F - 26.1 °F 38% 29.89 in - South 9.2 mph - N/A   Unknown
7:51 PM 51.1 °F - 24.1 °F 35% 29.89 in - SSE 8.1 mph - N/A   Unknown
8:51 PM 46.9 °F - 25.0 °F 42% 29.89 in - SSE 8.1 mph - N/A   Unknown
9:51 PM 44.1 °F 40.8 °F 27.0 °F 51% 29.88 in - SE 5.8 mph - N/A   Unknown
10:51 PM 45.0 °F 41.2 °F 28.0 °F 52% 29.86 in - SE 6.9 mph - N/A   Unknown
11:51 PM 48.0 °F - 26.1 °F 42% 29.83 in - SE 6.9 mph - N/A   Unknown